HST
1 20580U 90037B   24148.93140153  .00004489  00000-0  20855-3 0  9997
2 20580  28.4672 120.8152 0002669 172.4313 187.6320 15.17487355673952
ISS (ZARYA)
1 25544U 98067A   24149.30135507 -.00047698  00000-0 -81638-3 0  9999
2 25544  51.6333  53.8841 0005962 243.6300 215.9869 15.50541192455469
CXO
1 25867U 99040B   24149.35049423  .00000720  00000-0  00000-0 0  9999
2 25867  40.6804 155.7827 8908050 295.0223 359.9343  0.37806773 14484